Regional Weather Roundup
Issued by NWS

Home | Current Version | Previous Version | Text Only | Print | Product List | Glossary Off
Versions: 1 2 3 4 5 6 7 8 9 10 11 12 13 14 15 16 17 18 19 20 21 22 23 24 25 26 27 28 29 30 31 32 33 34 35 36 37 38 39 40 41 42 43 44 45 46 47 48 49 50

000
ASUS43 KLSX 271457
RWRMO

WEATHER SUMMARY FOR MISSOURI
NATIONAL WEATHER SERVICE SPRINGFIELD MO
1000 AM CDT SUN MAY 27 2018

NOTE: "FAIR" INDICATES FEW OR NO CLOUDS BELOW 12,000 FEET WITH NO
       SIGNIFICANT WEATHER AND/OR OBSTRUCTIONS TO VISIBILITY.
       CURRENT SKY AND/OR WEATHER CONDITIONS ARE NOT AVAILABLE FOR
       CHILLICOTHE AND FARMINGTON.

MOZ001>031-035>038-043-044-053-054-271600-
...NORTHERN AND WESTERN MISSOURI...

CITY           SKY/WX    TMP DP  RH WIND       PRES   REMARKS
KANSAS CTY INT MOSUNNY   84  69  60 W10       29.91R
LEE`S SUMMIT   SUNNY     83  69  62 SW9       29.92R
ST JOSEPH      SUNNY     88  68  51 SW9       29.88R HX  91
CHILLICOTHE      N/A     86  70  58 VRB6      29.89R HX  90

$$
MOZ066>068-077>081-088>096-101>105-271600-
...SOUTHWEST MISSOURI...

CITY           SKY/WX    TMP DP  RH WIND       PRES   REMARKS
SPRINGFIELD    SUNNY     81  70  69 S6        29.94S
JOPLIN         SUNNY     82  72  71 S7        29.93S
BRANSON        MOSUNNY   81  68  65 CALM      29.97R

$$
MOZ032>034-039>042-045>050-055>058-069>072-271600-
...CENTRAL MISSOURI...

CITY           SKY/WX    TMP DP  RH WIND       PRES   REMARKS
COLUMBIA       NOT AVBL
JEFFERSON CITY SUNNY     85  70  60 CALM      29.90S
ROLLA          SUNNY     81  70  69 SW7       29.95R
SEDALIA        SUNNY     83  71  67 SW8       29.93R
WARRENSBURG    MOSUNNY   79  70  73 SW5       29.91S

$$
MOZ051-052-059>065-271600-
...EAST CENTRAL MISSOURI...

CITY           SKY/WX    TMP DP  RH WIND       PRES   REMARKS
ST LOUIS INTL  MOSUNNY   84  72  67 SW8       29.91R

$$
MOZ072>076-082>087-097>100-106>115-271600-
...SOUTH CENTRAL AND SOUTHEAST MISSOURI...

CITY           SKY/WX    TMP DP  RH WIND       PRES   REMARKS
CAPE GIRARDEAU FAIR      82  73  74 W6        29.91S
POPLAR BLUFF   FAIR      83  73  72 CALM      29.91S
WEST PLAINS    SUNNY     80  69  69 S3        29.97R

$$



USA.gov is the U.S. government's official web portal to all federal, state and local government web resources and services.